Hourly Data Report for May 15, 2021

ATIKOKAN (AUT)
ONTARIO
Current Station Operator: ECCC - MSC

48°45'40.000" N
91°37'41.000" W
389.30 m
6020LPQ
71747
WCH

Download Data

Hourly Data (May 2021)
Hourly Data Report for May 15, 2021
TIME
LST
Temp Definition
°C
Dew Point Definition
°C
Rel Hum Definition
%
Precip. Amount Definition
mm

Wind Dir Definition
10's deg

Wind Spd Definition
km/h
Visibility Definition
km
Stn Press Definition
kPa
Hmdx Definition


Wind Chill Definition


Weather Definition


00:00 5.1 3.4 89 0.0   0   97.36     LegendNANA
01:00 4.0 2.9 93 0.0 0 1   97.36     LegendNANA
02:00 3.0 2.4 96 0.0 8 1   97.36     LegendNANA
03:00 2.3 1.9 97 0.0 0 1   97.38     LegendNANA
04:00 1.9 1.6 98 0.0   0   97.37     LegendNANA
05:00 2.3 2.0 98 0.0   0   97.36     LegendNANA
06:00 4.7 3.9 94 0.0   0   97.36     LegendNANA
07:00 9.2 6.4 83 0.0 0 1   97.37     LegendNANA
08:00 12.3 6.1 66 0.0 25 1   97.40     LegendNANA
09:00 16.5 4.3 44 0.0 13 6   97.37     LegendNANA
10:00 16.9 3.6 41 0.0 20 13   97.33     LegendNANA
11:00 17.8 3.8 39 0.0 15 8   97.28     LegendNANA
12:00 17.5 3.6 40 0.0 17 8   97.26     LegendNANA
13:00 17.9 2.9 37 0.0 20 7   97.21     LegendNANA
14:00 18.1 3.0 36 0.0 23 11   97.18     LegendNANA
15:00 18.0 3.3 38 0.0 20 8   97.13     LegendNANA
16:00 18.1 3.0 37 0.0 20 4   97.10     LegendNANA
17:00 19.4 3.1 34 0.0 19 7   97.07     LegendNANA
18:00 18.8 4.0 37 0.0 20 10   97.08     LegendNANA
19:00 17.5 3.7 40 0.0 22 6   97.10     LegendNANA
20:00 14.3 4.8 53 0.0 2 2   97.12     LegendNANA
21:00 10.7 5.1 68 0.0 0 1   97.16     LegendNANA
22:00 10.5 5.5 71 0.0 22 4   97.19     LegendNANA
23:00 11.5 5.3 66 0.0 20 6   97.21     LegendNANA

Notes on Data Quality.

Legend

  • E = Estimated
  • M = Missing
  • NA = Not Available*
  • [empty] = Indicates an unobserved value
Date modified: